STARLINK-35078

Last updated on Tue Oct 07 2025 00:02:05 GMT+0000 (Coordinated Universal Time)

1 65523U 25200D 25279.50003471 .00122765 00000+0 22230-2 0 9998 2 65523 97.6034 346.2026 0001530 96.1933 349.8713 15.49198545 5860
UTC large
Height (km)
Speed (km/s)
/
Latitude / Longitude
Inclination (degrees)
Orbital Period (minutes)
Azimuth
Elevation
Range (km)
Doppler Factor

Next 0 passes for location: London (51.5072 / 0.1276)

Sorry there are no passes over London.
STARLINK-35078